Hulianwang Jishu Shiyan W.

operational
NORAD ID: 57289 Int'l Des: 2023-095 Owner: ZXW Country: CN Constellation: xingwang
LEOCIRCULARPOLARONEWEB_TYPE

Hulianwang Jishu Shiyan W.について

説明を読み込み中...

リアルタイム位置

3D地球を読み込み中...

次回通過

高度履歴

Altitude vs Time

uPlot chart will show altitude changes over time

軌道要素

1 57289U 23095B 26062.18112096 .00000058 00000-0 79210-4 0 9990
2 57289 86.5004 41.4572 0017791 120.1808 240.1099 13.39542308129560
Epoch: Mar 3, 2026 • Age: 15 hours

現在のステータス

高度 1136.0 km
速度 7.28 km/s
衛星直下点 -34.67°S, 13.54°E
打ち上げ日 Jul 9, 2023
運用期間 2.6 years
タイプ other

技術仕様

分類 Payload
質量 300.00 kg
乾燥質量 300.00 kg
総質量 300.00 kg
長さ 2.50 m
直径 0.80 m
スパン 2.50 m
形状 Box + 2 Pan
製造者 CAST
フェーズステータス In Orbit
所有者/国 ZXW/CN

大規模コンステレーション

Loading constellations...